When you browse on this site, cookies collect data to enhance your experience and personalize the content and advertising you see.
Visit our Privacy Policy to learn more. By continuing to use the site, you agree to this use of cookies and data.

Stündliche Wetter Podmogile

Heute, 14 August, Freitag

Zeit Temperatur Niederschläge Wind Luftdruck Luftfeuchtigkeit
00:00 +12°C° 0 mm 0 m/S 755 mmHg 82%
01:00 +11°C° 0 mm 0 m/S 755 mmHg 83%
02:00 +11°C° 0 mm 0 m/S 755 mmHg 84%
03:00 +11°C° 0 mm 0 m/S 755 mmHg 85%
04:00 +12°C° 0 mm 1 m/S 755 mmHg 87%
05:00 +11°C° 0 mm 1 m/S 755 mmHg 89%
06:00 +13°C° 0 mm 1 m/S 755 mmHg 84%
07:00 +14°C° 0 mm 1 m/S 755 mmHg 79%
08:00 +16°C° 0 mm 1 m/S 755 mmHg 74%
09:00 +18°C° 0 mm 1 m/S 755 mmHg 67%
10:00 +20°C° 0 mm 1 m/S 755 mmHg 61%
11:00 +20°C° 0 mm 2 m/S 755 mmHg 55%
12:00 +21°C° 0 mm 2 m/S 755 mmHg 54%
13:00 +21°C° 0 mm 2 m/S 754 mmHg 54%
14:00 +21°C° 0 mm 2 m/S 754 mmHg 53%
15:00 +22°C° 0 mm 1 m/S 754 mmHg 56%
16:00 +22°C° 0 mm 1 m/S 754 mmHg 60%
17:00 +22°C° 0 mm 1 m/S 753 mmHg 64%
18:00 +20°C° 0 mm 1 m/S 753 mmHg 72%
19:00 +18°C° 0 mm 1 m/S 753 mmHg 80%
20:00 +15°C° 0 mm 1 m/S 753 mmHg 88%
21:00 +15°C° 0 mm 1 m/S 753 mmHg 90%
22:00 +14°C° 0 mm 1 m/S 754 mmHg 93%
23:00 +14°C° 0 mm 1 m/S 754 mmHg 95%

Morgen, 15 August, Samstag

Zeit Temperatur Niederschläge Wind Luftdruck Luftfeuchtigkeit
00:00 +13°C° 0 mm 1 m/S 754 mmHg 96%
01:00 +13°C° 0 mm 1 m/S 754 mmHg 96%
02:00 +13°C° 0 mm 2 m/S 754 mmHg 97%
03:00 +13°C° 0 mm 1 m/S 754 mmHg 97%
04:00 +13°C° 0 mm 1 m/S 754 mmHg 97%
05:00 +12°C° 0 mm 1 m/S 753 mmHg 97%
06:00 +14°C° 0 mm 1 m/S 754 mmHg 93%
07:00 +16°C° 0 mm 1 m/S 754 mmHg 88%
08:00 +18°C° 0 mm 1 m/S 754 mmHg 83%
09:00 +19°C° 0 mm 2 m/S 754 mmHg 76%
10:00 +20°C° 0 mm 2 m/S 753 mmHg 69%
11:00 +23°C° 0 mm 2 m/S 753 mmHg 63%
12:00 +23°C° 0 mm 2 m/S 753 mmHg 60%
13:00 +24°C° 0 mm 2 m/S 753 mmHg 58%
14:00 +24°C° 0 mm 2 m/S 753 mmHg 55%
15:00 +24°C° 0 mm 2 m/S 753 mmHg 58%
16:00 +24°C° 0 mm 2 m/S 753 mmHg 61%
17:00 +24°C° 0 mm 2 m/S 752 mmHg 64%
18:00 +21°C° 0.1 mm 2 m/S 752 mmHg 72%
19:00 +21°C° 0.1 mm 1 m/S 752 mmHg 81%
20:00 +19°C° 0.1 mm 1 m/S 752 mmHg 90%
21:00 +18°C° 0.1 mm 1 m/S 752 mmHg 92%
22:00 +17°C° 0.1 mm 2 m/S 753 mmHg 94%
23:00 +16°C° 0.1 mm 2 m/S 753 mmHg 95%

übermorgen, 16 August, Sonntag

Zeit Temperatur Niederschläge Wind Luftdruck Luftfeuchtigkeit
00:00 +16°C° 0 mm 2 m/S 753 mmHg 96%
01:00 +15°C° 0 mm 2 m/S 752 mmHg 96%
02:00 +15°C° 0 mm 2 m/S 752 mmHg 96%
03:00 +14°C° 0 mm 2 m/S 752 mmHg 96%
04:00 +14°C° 0 mm 2 m/S 752 mmHg 97%
05:00 +14°C° 0 mm 2 m/S 752 mmHg 97%
06:00 +15°C° 0 mm 2 m/S 752 mmHg 92%
07:00 +17°C° 0 mm 2 m/S 752 mmHg 87%
08:00 +18°C° 0 mm 2 m/S 752 mmHg 82%
09:00 +20°C° 0 mm 3 m/S 752 mmHg 75%
10:00 +22°C° 0 mm 3 m/S 752 mmHg 67%
11:00 +25°C° 0 mm 4 m/S 752 mmHg 59%
12:00 +26°C° 0 mm 4 m/S 752 mmHg 56%
13:00 +26°C° 0 mm 4 m/S 752 mmHg 54%
14:00 +27°C° 0 mm 4 m/S 752 mmHg 52%
15:00 +27°C° 0.1 mm 4 m/S 751 mmHg 55%
16:00 +26°C° 0.1 mm 3 m/S 751 mmHg 59%
17:00 +26°C° 0.1 mm 3 m/S 751 mmHg 63%
18:00 +24°C° 0 mm 2 m/S 751 mmHg 68%
19:00 +21°C° 0 mm 2 m/S 751 mmHg 73%
20:00 +20°C° 0 mm 2 m/S 751 mmHg 78%
21:00 +19°C° 0 mm 2 m/S 751 mmHg 80%
22:00 +18°C° 0 mm 2 m/S 751 mmHg 83%
23:00 +17°C° 0 mm 2 m/S 751 mmHg 85%

17 August, Montag

Zeit Temperatur Niederschläge Wind Luftdruck Luftfeuchtigkeit
00:00 +16°C° 0 mm 2 m/S 751 mmHg 89%
01:00 +16°C° 0 mm 2 m/S 751 mmHg 92%
02:00 +15°C° 0 mm 2 m/S 751 mmHg 96%
03:00 +15°C° 0 mm 2 m/S 751 mmHg 96%
04:00 +14°C° 0 mm 2 m/S 751 mmHg 97%
05:00 +14°C° 0 mm 2 m/S 751 mmHg 98%
06:00 +15°C° 0 mm 2 m/S 751 mmHg 89%
07:00 +16°C° 0 mm 2 m/S 751 mmHg 80%
08:00 +18°C° 0 mm 2 m/S 751 mmHg 71%
09:00 +19°C° 0 mm 2 m/S 751 mmHg 63%
10:00 +20°C° 0 mm 3 m/S 751 mmHg 55%
11:00 +22°C° 0 mm 3 m/S 752 mmHg 47%
12:00 +22°C° 0 mm 3 m/S 752 mmHg 45%
13:00 +24°C° 0 mm 3 m/S 751 mmHg 44%
14:00 +24°C° 0 mm 3 m/S 751 mmHg 43%
15:00 +24°C° 0 mm 3 m/S 751 mmHg 45%
16:00 +22°C° 0 mm 3 m/S 751 mmHg 48%
17:00 +22°C° 0 mm 3 m/S 751 mmHg 50%
18:00 +19°C° 0 mm 3 m/S 751 mmHg 57%
19:00 +17°C° 0 mm 2 m/S 752 mmHg 63%
20:00 +15°C° 0 mm 2 m/S 752 mmHg 69%
21:00 +14°C° 0 mm 2 m/S 752 mmHg 72%
22:00 +13°C° 0 mm 1 m/S 752 mmHg 74%
23:00 +13°C° 0 mm 1 m/S 752 mmHg 77%

18 August, Dienstag

Zeit Temperatur Niederschläge Wind Luftdruck Luftfeuchtigkeit
00:00 +12°C° 0 mm 1 m/S 752 mmHg 78%
01:00 +12°C° 0 mm 1 m/S 752 mmHg 78%
02:00 +11°C° 0 mm 1 m/S 752 mmHg 79%
03:00 +11°C° 0 mm 1 m/S 752 mmHg 81%
04:00 +10°C° 0 mm 0 m/S 752 mmHg 82%
05:00 +9°C° 0 mm 0 m/S 752 mmHg 83%
06:00 +12°C° 0 mm 0 m/S 751 mmHg 76%
07:00 +14°C° 0 mm 0 m/S 751 mmHg 69%
08:00 +16°C° 0 mm 0 m/S 751 mmHg 62%
09:00 +18°C° 0 mm 0 m/S 751 mmHg 55%
10:00 +21°C° 0 mm 0 m/S 751 mmHg 49%
11:00 +23°C° 0 mm 0 m/S 751 mmHg 43%
12:00 +23°C° 0 mm 0 m/S 751 mmHg 42%
13:00 +24°C° 0 mm 0 m/S 750 mmHg 42%
14:00 +24°C° 0 mm 0 m/S 750 mmHg 41%
15:00 +24°C° 0 mm 0 m/S 750 mmHg 43%
16:00 +23°C° 0 mm 0 m/S 749 mmHg 46%
17:00 +22°C° 0 mm 0 m/S 749 mmHg 48%
18:00 +20°C° 0 mm 0 m/S 749 mmHg 56%
19:00 +18°C° 0 mm 0 m/S 749 mmHg 63%
20:00 +18°C° 0 mm 1 m/S 749 mmHg 70%
21:00 +16°C° 0 mm 1 m/S 749 mmHg 71%
22:00 +15°C° 0 mm 1 m/S 749 mmHg 72%
23:00 +15°C° 0 mm 1 m/S 749 mmHg 73%

19 August, Mittwoch

Zeit Temperatur Niederschläge Wind Luftdruck Luftfeuchtigkeit
00:00 +15°C° 0 mm 1 m/S 749 mmHg 73%
01:00 +14°C° 0 mm 1 m/S 749 mmHg 74%
02:00 +14°C° 0 mm 1 m/S 749 mmHg 74%
03:00 +13°C° 0 mm 1 m/S 749 mmHg 75%
04:00 +13°C° 0 mm 1 m/S 749 mmHg 76%
05:00 +13°C° 0 mm 1 m/S 748 mmHg 77%
06:00 +15°C° 0 mm 1 m/S 748 mmHg 71%
07:00 +18°C° 0 mm 1 m/S 748 mmHg 65%
08:00 +20°C° 0 mm 1 m/S 748 mmHg 59%
09:00 +22°C° 0 mm 1 m/S 748 mmHg 54%
10:00 +23°C° 0 mm 1 m/S 748 mmHg 48%
11:00 +25°C° 0 mm 2 m/S 748 mmHg 43%
12:00 +26°C° 0 mm 2 m/S 748 mmHg 42%
13:00 +26°C° 0 mm 2 m/S 748 mmHg 41%
14:00 +27°C° 0 mm 2 m/S 747 mmHg 40%
15:00 +26°C° 0 mm 2 m/S 747 mmHg 44%
16:00 +26°C° 0 mm 2 m/S 747 mmHg 48%
17:00 +26°C° 0 mm 2 m/S 747 mmHg 52%
18:00 +23°C° 0 mm 2 m/S 747 mmHg 59%
19:00 +20°C° 0 mm 2 m/S 746 mmHg 66%
20:00 +18°C° 0 mm 2 m/S 746 mmHg 73%
21:00 +17°C° 0 mm 2 m/S 746 mmHg 73%
22:00 +17°C° 0 mm 2 m/S 746 mmHg 74%
23:00 +16°C° 0 mm 2 m/S 746 mmHg 74%
Mehr zeigen